Location: Newark
(54.4333°N, 18.5500°E)
Time: 02:51:57
(UTC+00:00)

Envisat - Pass Details

Date: 13 December 2019
Orbit: 764 x 766 km, 98.1° (Epoch: 19 January)

Event Time Altitude Azimuth Distance (km) Brightness Sun altitude
Rises 17:26:34 0° 194° (SSW) 3,224 6.5 -25.3°
Reaches altitude 10° 17:29:07 10° 205° (SSW) 2,303 5.8 -25.7°
Maximum altitude 17:33:36 31° 267° (W) 1,333 4.8 -26.4°
Drops below altitude 10° 17:38:06 10° 329° (NNW) 2,317 5.8 -27.0°
Sets 17:40:41 0° 340° (NNW) 3,249 6.5 -27.4°
